HAL41 KSEA-PHNL

Flight info

Callsign HAL41
Flight time 5h 36m
Altitude 38000
Route HAROB6 HQM SEDAR FOZZI HEKAB A332 AUNTI R463 APACK MAGGI3
Aircraft A332/H-SDE3GHIJ2J3J5M1RVWXY/LB2D1

Departure

Time 2026-05-05 22:32
Airport Seattle–Tacoma International Airport (KSEA)

Arrival

Time 2026-05-06 04:09
Airport Daniel K. Inouye International Airport (PHNL)
Time Latitude Longitude Altitude Speed Heading
2026-05-05 22:10 47.43961 -122.29851 392 ft 0 kts 62°
2026-05-05 22:18 47.43958 -122.29860 389 ft 3 kts 60°
2026-05-05 22:19 47.43948 -122.29886 387 ft 3 kts 56°
2026-05-05 22:19 47.43936 -122.29910 393 ft 3 kts 50°
2026-05-05 22:19 47.43922 -122.29932 393 ft 3 kts 41°
2026-05-05 22:19 47.43906 -122.29950 392 ft 3 kts 26°
2026-05-05 22:20 47.43891 -122.29959 392 ft 2 kts
2026-05-05 22:20 47.43888 -122.29959 392 ft 1 kts
2026-05-05 22:23 47.43893 -122.29959 392 ft 3 kts
2026-05-05 22:23 47.43922 -122.29958 392 ft 4 kts
2026-05-05 22:23 47.43953 -122.29971 393 ft 7 kts 333°
2026-05-05 22:23 47.43990 -122.30021 394 ft 8 kts 315°
2026-05-05 22:24 47.44028 -122.30077 390 ft 8 kts 314°
2026-05-05 22:24 47.44054 -122.30146 390 ft 8 kts 281°
2026-05-05 22:24 47.44037 -122.30229 392 ft 10 kts 240°
2026-05-05 22:24 47.44002 -122.30326 391 ft 11 kts 250°
2026-05-05 22:25 47.43991 -122.30442 389 ft 12 kts 268°
2026-05-05 22:25 47.43991 -122.30563 388 ft 9 kts 270°
2026-05-05 22:25 47.44022 -122.30629 388 ft 8 kts 339°
2026-05-05 22:25 47.44079 -122.30635 389 ft 10 kts 360°
2026-05-05 22:26 47.44156 -122.30634 391 ft 12 kts
2026-05-05 22:26 47.44253 -122.30633 394 ft 16 kts
2026-05-05 22:26 47.44362 -122.30633 394 ft 15 kts
2026-05-05 22:26 47.44474 -122.30632 398 ft 19 kts
2026-05-05 22:27 47.44614 -122.30631 404 ft 21 kts
2026-05-05 22:27 47.44772 -122.30629 408 ft 24 kts
2026-05-05 22:27 47.44948 -122.30628 408 ft 25 kts
2026-05-05 22:27 47.45111 -122.30626 411 ft 22 kts
2026-05-05 22:28 47.45256 -122.30625 417 ft 19 kts
2026-05-05 22:28 47.45378 -122.30624 423 ft 16 kts
2026-05-05 22:28 47.45486 -122.30623 426 ft 16 kts
2026-05-05 22:28 47.45605 -122.30621 427 ft 18 kts
2026-05-05 22:29 47.45735 -122.30620 434 ft 20 kts
2026-05-05 22:29 47.45885 -122.30618 434 ft 23 kts 359°
2026-05-05 22:29 47.46040 -122.30618 436 ft 22 kts
2026-05-05 22:29 47.46186 -122.30618 436 ft 17 kts
2026-05-05 22:30 47.46273 -122.30617 431 ft 11 kts
2026-05-05 22:30 47.46339 -122.30616 438 ft 8 kts 358°
2026-05-05 22:30 47.46374 -122.30660 446 ft 7 kts 290°
2026-05-05 22:30 47.46369 -122.30732 433 ft 8 kts 249°
2026-05-05 22:31 47.46316 -122.30777 433 ft 14 kts 181°
2026-05-05 22:31 47.46103 -122.30779 427 ft 57 kts 180°
2026-05-05 22:31 47.45513 -122.30786 421 ft 113 kts 180°
2026-05-05 22:31 47.44545 -122.30795 398 ft 164 kts 181°
2026-05-05 22:32 47.43305 -122.30813 836 ft 179 kts 182°
2026-05-05 22:32 47.42095 -122.30850 1811 ft 171 kts 183°
2026-05-05 22:32 47.40861 -122.30893 2313 ft 187 kts 182°
2026-05-05 22:32 47.39478 -122.30917 2619 ft 209 kts 182°
2026-05-05 22:33 47.37955 -122.30952 2888 ft 233 kts 182°
2026-05-05 22:33 47.36247 -122.31006 3194 ft 254 kts 182°
2026-05-05 22:33 47.34451 -122.31228 3752 ft 264 kts 194°
2026-05-05 22:33 47.32781 -122.32397 4284 ft 271 kts 223°
2026-05-05 22:34 47.31718 -122.34663 4944 ft 271 kts 252°
2026-05-05 22:34 47.31280 -122.37344 5603 ft 274 kts 262°
2026-05-05 22:34 47.30991 -122.40132 6369 ft 276 kts 264°
2026-05-05 22:34 47.30733 -122.42936 7127 ft 277 kts 267°
2026-05-05 22:35 47.30698 -122.45784 7868 ft 279 kts 274°
2026-05-05 22:35 47.30778 -122.48657 8599 ft 282 kts 274°
2026-05-05 22:35 47.30873 -122.51566 9334 ft 286 kts 274°
2026-05-05 22:35 47.30966 -122.54508 10069 ft 289 kts 274°
2026-05-05 22:36 47.31057 -122.57534 10447 ft 304 kts 275°
2026-05-05 22:36 47.31152 -122.60746 10718 ft 323 kts 274°
2026-05-05 22:36 47.31247 -122.64139 10995 ft 339 kts 274°
2026-05-05 22:36 47.31342 -122.67622 11452 ft 349 kts 274°
2026-05-05 22:37 47.31438 -122.71230 12059 ft 354 kts 274°
2026-05-05 22:37 47.31506 -122.74892 12683 ft 359 kts 270°
2026-05-05 22:37 47.31120 -122.78563 13330 ft 367 kts 255°
2026-05-05 22:37 47.30269 -122.82127 13930 ft 372 kts 251°
2026-05-05 22:38 47.29308 -122.85699 14456 ft 376 kts 250°
2026-05-05 22:38 47.28329 -122.89292 15003 ft 380 kts 250°
2026-05-05 22:38 47.27354 -122.92886 15558 ft 384 kts 250°
2026-05-05 22:38 47.26365 -122.96551 16115 ft 387 kts 251°
2026-05-05 22:39 47.25369 -123.00247 16680 ft 391 kts 251°
2026-05-05 22:39 47.24366 -123.03986 17235 ft 394 kts 251°
2026-05-05 22:39 47.23371 -123.07767 17772 ft 398 kts 251°
2026-05-05 22:39 47.22370 -123.11589 18310 ft 402 kts 252°
2026-05-05 22:40 47.21361 -123.15439 18787 ft 405 kts 252°
2026-05-05 22:40 47.20344 -123.19315 19290 ft 407 kts 251°
2026-05-05 22:40 47.19319 -123.23215 19787 ft 409 kts 251°
2026-05-05 22:40 47.18288 -123.27128 20279 ft 412 kts 251°
2026-05-05 22:41 47.17249 -123.31065 20751 ft 414 kts 251°
2026-05-05 22:41 47.16212 -123.34990 21233 ft 416 kts 251°
2026-05-05 22:41 47.15158 -123.38973 21708 ft 419 kts 251°
2026-05-05 22:41 47.14095 -123.42979 22173 ft 421 kts 251°
2026-05-05 22:42 47.13028 -123.46997 22623 ft 423 kts 251°
2026-05-05 22:42 47.11951 -123.51043 23088 ft 426 kts 251°
2026-05-05 22:42 47.10879 -123.55067 23532 ft 428 kts 251°
2026-05-05 22:42 47.09791 -123.59143 23930 ft 430 kts 251°
2026-05-05 22:43 47.08694 -123.63242 24313 ft 432 kts 251°
2026-05-05 22:43 47.07589 -123.67364 24671 ft 434 kts 251°
2026-05-05 22:43 47.06478 -123.71504 25029 ft 436 kts 251°
2026-05-05 22:43 47.05360 -123.75663 25395 ft 438 kts 251°
2026-05-05 22:44 47.04251 -123.79780 25754 ft 440 kts 251°
2026-05-05 22:44 47.03123 -123.83960 26100 ft 442 kts 251°
2026-05-05 22:44 47.01987 -123.88163 26462 ft 444 kts 251°
2026-05-05 22:44 47.00842 -123.92388 26800 ft 446 kts 251°
2026-05-05 22:45 46.99694 -123.96621 27152 ft 448 kts 251°
2026-05-05 22:45 46.98541 -124.00863 27494 ft 450 kts 251°
2026-05-05 22:45 46.97378 -124.05134 27822 ft 452 kts 251°
2026-05-05 22:45 46.96605 -124.07970 28069 ft 453 kts 251°
2026-05-05 22:46 46.95399 -124.12237 28419 ft 455 kts 248°
2026-05-05 22:46 46.93275 -124.17580 28828 ft 462 kts 238°
2026-05-05 22:46 46.92001 -124.20177 29032 ft 465 kts 236°
2026-05-05 22:46 46.90056 -124.23905 29310 ft 468 kts 234°
2026-05-05 22:47 46.88031 -124.27637 29646 ft 470 kts 234°
2026-05-05 22:47 46.85976 -124.31372 29958 ft 472 kts 234°
2026-05-05 22:47 46.83913 -124.35121 30254 ft 474 kts 234°
2026-05-05 22:47 46.81845 -124.38896 30507 ft 476 kts 234°
2026-05-05 22:48 46.79772 -124.42700 30769 ft 478 kts 234°
2026-05-05 22:48 46.77704 -124.46509 31028 ft 480 kts 234°
2026-05-05 22:48 46.75653 -124.50291 31283 ft 482 kts 234°
2026-05-05 22:48 46.73569 -124.54136 31529 ft 483 kts 234°
2026-05-05 22:49 46.71478 -124.57988 31828 ft 484 kts 234°
2026-05-05 22:49 46.69391 -124.61827 32197 ft 483 kts 234°
2026-05-05 22:49 46.67303 -124.65662 32565 ft 482 kts 234°
2026-05-05 22:49 46.65221 -124.69479 32920 ft 481 kts 234°
2026-05-05 22:50 46.63139 -124.73290 33257 ft 480 kts 234°
2026-05-05 22:50 46.61084 -124.77047 33566 ft 479 kts 234°
2026-05-05 22:50 46.59002 -124.80850 33896 ft 479 kts 234°
2026-05-05 22:50 46.56931 -124.84625 34247 ft 476 kts 234°
2026-05-05 22:51 46.54864 -124.88388 34580 ft 474 kts 234°
2026-05-05 22:51 46.52805 -124.92132 34845 ft 474 kts 234°
2026-05-05 22:51 46.50748 -124.95869 35088 ft 474 kts 234°
2026-05-05 22:51 46.48691 -124.99600 35334 ft 473 kts 234°
2026-05-05 22:52 46.46627 -125.03338 35580 ft 473 kts 234°
2026-05-05 22:52 46.44573 -125.07054 35835 ft 472 kts 234°
2026-05-05 22:52 46.42543 -125.10721 36076 ft 471 kts 234°
2026-05-05 22:52 46.40491 -125.14423 36371 ft 469 kts 233°
2026-05-05 22:53 46.38447 -125.18105 36612 ft 468 kts 233°
2026-05-05 22:53 46.36406 -125.21778 36825 ft 468 kts 233°
2026-05-05 22:53 46.34362 -125.25450 37033 ft 468 kts 233°
2026-05-05 22:53 46.32318 -125.29119 37250 ft 468 kts 233°
2026-05-05 22:54 46.30271 -125.32786 37453 ft 467 kts 233°
2026-05-05 22:54 46.28256 -125.36392 37651 ft 467 kts 233°
2026-05-05 22:54 46.26208 -125.40054 37919 ft 465 kts 233°
2026-05-05 22:54 46.24175 -125.43682 38080 ft 465 kts 233°
2026-05-05 22:55 46.22135 -125.47320 38090 ft 467 kts 233°
2026-05-05 22:55 46.18039 -125.54608 38089 ft 466 kts 233°
2026-05-05 22:56 46.13972 -125.61824 38089 ft 466 kts 233°
2026-05-05 22:56 46.09880 -125.69068 38087 ft 465 kts 233°
2026-05-05 22:57 46.05790 -125.76288 38088 ft 465 kts 233°
2026-05-05 22:57 46.01720 -125.83453 38091 ft 464 kts 233°
2026-05-05 22:58 45.97626 -125.90644 38081 ft 464 kts 232°
2026-05-05 22:58 45.93535 -125.97811 38088 ft 463 kts 232°
2026-05-05 22:59 45.89444 -126.04958 38086 ft 462 kts 232°
2026-05-05 22:59 45.85357 -126.12082 38088 ft 462 kts 232°
2026-05-05 23:00 45.79218 -126.22747 38093 ft 461 kts 232°
2026-05-05 23:00 45.75153 -126.29786 38090 ft 460 kts 232°
2026-05-05 23:01 45.71059 -126.36858 38088 ft 460 kts 232°
2026-05-05 23:01 45.66992 -126.43866 38079 ft 460 kts 231°
2026-05-05 23:02 45.62896 -126.50907 38085 ft 459 kts 231°
2026-05-05 23:02 45.58808 -126.57915 38078 ft 459 kts 231°
2026-05-05 23:03 45.54695 -126.64950 38091 ft 462 kts 231°
2026-05-05 23:03 45.50524 -126.71829 38090 ft 462 kts 226°
2026-05-05 23:04 45.45925 -126.78245 38093 ft 461 kts 224°
2026-05-05 23:04 45.41258 -126.84520 38086 ft 461 kts 224°
2026-05-05 23:05 45.36606 -126.90727 38088 ft 461 kts 224°
2026-05-05 23:05 45.31922 -126.96977 38088 ft 461 kts 224°
2026-05-05 23:06 45.27245 -127.03217 38088 ft 461 kts 224°
2026-05-05 23:06 45.22570 -127.09445 38088 ft 461 kts 224°
2026-05-05 23:07 45.17893 -127.15661 38081 ft 461 kts 224°
2026-05-05 23:07 45.13223 -127.21851 38088 ft 459 kts 224°
2026-05-05 23:08 45.08564 -127.28011 38088 ft 458 kts 224°
2026-05-05 23:08 45.03916 -127.34146 38089 ft 461 kts 224°
2026-05-05 23:09 44.99212 -127.40338 38091 ft 461 kts 224°
2026-05-05 23:09 44.94517 -127.46502 38092 ft 460 kts 224°
2026-05-05 23:10 44.89823 -127.52652 38091 ft 459 kts 223°
2026-05-05 23:10 44.85159 -127.58748 38091 ft 459 kts 223°
2026-05-05 23:11 44.80466 -127.64866 38094 ft 458 kts 223°
2026-05-05 23:11 44.75787 -127.70954 38094 ft 457 kts 223°
2026-05-05 23:12 44.71115 -127.77018 38097 ft 457 kts 223°
2026-05-05 23:12 44.66434 -127.83082 38095 ft 457 kts 223°
2026-05-05 23:13 44.61795 -127.89075 38097 ft 454 kts 223°
2026-05-05 23:13 44.57137 -127.95079 38097 ft 455 kts 223°
2026-05-05 23:14 44.52483 -128.01066 38100 ft 458 kts 223°
2026-05-05 23:14 44.47785 -128.07095 38101 ft 457 kts 223°
2026-05-05 23:15 44.43097 -128.13096 38100 ft 456 kts 223°
2026-05-05 23:15 44.38413 -128.19080 38100 ft 456 kts 223°
2026-05-05 23:16 44.33721 -128.25061 38100 ft 456 kts 222°
2026-05-05 23:16 44.29047 -128.31006 38102 ft 453 kts 222°
2026-05-05 23:17 44.24409 -128.36890 38104 ft 451 kts 222°
2026-05-05 23:17 44.19757 -128.42779 38105 ft 452 kts 222°
2026-05-05 23:18 44.15123 -128.48635 38107 ft 451 kts 221°
2026-05-05 23:18 44.10478 -128.54490 38115 ft 449 kts 222°
2026-05-05 23:19 44.05845 -128.60316 38108 ft 448 kts 221°
2026-05-05 23:19 44.01214 -128.66124 38114 ft 448 kts 221°
2026-05-05 23:20 43.96592 -128.71912 38114 ft 446 kts 221°
2026-05-05 23:20 43.91982 -128.77669 38118 ft 446 kts 221°
2026-05-05 23:21 43.87383 -128.83403 38117 ft 446 kts 221°
2026-05-05 23:21 43.82760 -128.89155 38122 ft 446 kts 220°
2026-05-05 23:22 43.78149 -128.94879 38121 ft 444 kts 221°
2026-05-05 23:22 43.73567 -129.00550 38127 ft 444 kts 221°
2026-05-05 23:23 43.68956 -129.06247 38130 ft 444 kts 221°
2026-05-05 23:23 43.64342 -129.11940 38123 ft 445 kts 221°
2026-05-05 23:24 43.59708 -129.17647 38134 ft 447 kts 221°
2026-05-05 23:24 43.55064 -129.23348 38129 ft 447 kts 221°
2026-05-05 23:25 43.50443 -129.29010 38135 ft 446 kts 220°
2026-05-05 23:25 43.45805 -129.34679 38131 ft 445 kts 221°
2026-05-05 23:26 43.41170 -129.40335 38135 ft 445 kts 220°
2026-05-05 23:26 43.36532 -129.45982 38138 ft 445 kts 221°
2026-05-05 23:27 43.31921 -129.51589 38147 ft 444 kts 220°
2026-05-05 23:27 43.27286 -129.57206 38134 ft 444 kts 220°
2026-05-05 23:28 43.22656 -129.62807 38141 ft 444 kts 220°
2026-05-05 23:28 43.18049 -129.68369 38139 ft 443 kts 220°
2026-05-05 23:29 43.13410 -129.73955 38141 ft 444 kts 220°
2026-05-05 23:29 43.08760 -129.79545 38150 ft 445 kts 220°
2026-05-05 23:30 43.04886 -129.84195 38154 ft 445 kts 220°
2026-05-05 23:30 42.99434 -129.90724 38154 ft 444 kts 220°
2026-05-05 23:31 42.94815 -129.96241 38152 ft 444 kts 220°
2026-05-05 23:31 42.90361 -130.02090 38156 ft 444 kts 226°
2026-05-05 23:32 42.86203 -130.08363 38159 ft 445 kts 227°
2026-05-05 23:32 42.82129 -130.14660 38154 ft 444 kts 227°
2026-05-05 23:33 42.78047 -130.20969 38164 ft 444 kts 227°
2026-05-05 23:33 42.73955 -130.27256 38162 ft 444 kts 227°
2026-05-05 23:34 42.69855 -130.33533 38169 ft 443 kts 227°
2026-05-05 23:34 42.65776 -130.39759 38170 ft 443 kts 227°
2026-05-05 23:35 42.62340 -130.44996 38169 ft 443 kts 227°
2026-05-05 23:35 42.58253 -130.51211 38171 ft 444 kts 227°
2026-05-05 23:36 42.54133 -130.57464 38170 ft 443 kts 227°
2026-05-05 23:36 42.50014 -130.63701 38173 ft 443 kts 227°
2026-05-05 23:37 42.45897 -130.69923 38177 ft 443 kts 227°
2026-05-05 23:37 42.41775 -130.76140 38173 ft 443 kts 226°
2026-05-05 23:38 42.37684 -130.82296 38175 ft 442 kts 226°
2026-05-05 23:38 42.33560 -130.88488 38182 ft 442 kts 226°
2026-05-05 23:39 42.29441 -130.94661 38189 ft 442 kts 226°
2026-05-05 23:39 42.25321 -131.00821 38186 ft 441 kts 226°
2026-05-05 23:40 42.21233 -131.06921 38183 ft 441 kts 226°
2026-05-05 23:40 42.17109 -131.13062 38189 ft 441 kts 226°
2026-05-05 23:41 42.12978 -131.19200 38195 ft 441 kts 226°
2026-05-05 23:41 42.08847 -131.25326 38188 ft 441 kts 226°
2026-05-05 23:42 42.04715 -131.31441 38193 ft 441 kts 226°
2026-05-05 23:42 42.00609 -131.37504 38199 ft 441 kts 226°
2026-05-05 23:43 41.96478 -131.43593 38191 ft 441 kts 226°
2026-05-05 23:43 41.92333 -131.49688 38195 ft 442 kts 226°
2026-05-05 23:44 41.88178 -131.55785 38199 ft 442 kts 226°
2026-05-05 23:44 41.84024 -131.61867 38198 ft 441 kts 226°
2026-05-05 23:45 41.79878 -131.67927 38201 ft 441 kts 226°
2026-05-05 23:45 41.75734 -131.73970 38198 ft 440 kts 226°
2026-05-05 23:46 41.71606 -131.79978 38204 ft 440 kts 226°
2026-05-05 23:46 41.67466 -131.85992 38206 ft 438 kts 226°
2026-05-05 23:47 41.63323 -131.91997 38209 ft 438 kts 226°
2026-05-05 23:47 41.59184 -131.97983 38210 ft 438 kts 225°
2026-05-05 23:48 41.55076 -132.03915 38210 ft 437 kts 225°
2026-05-05 23:48 41.50948 -132.09862 38210 ft 436 kts 225°
2026-05-05 23:49 41.46809 -132.15813 38212 ft 436 kts 225°
2026-05-05 23:49 41.42702 -132.21706 38211 ft 436 kts 225°
2026-05-05 23:50 41.38568 -132.27626 38216 ft 435 kts 225°
2026-05-05 23:50 41.34441 -132.33523 38210 ft 435 kts 225°
2026-05-05 23:51 41.30326 -132.39394 38216 ft 437 kts 225°
2026-05-05 23:51 41.26172 -132.45307 38218 ft 437 kts 225°
2026-05-05 23:52 41.22020 -132.51205 38224 ft 436 kts 225°
2026-05-05 23:52 41.17884 -132.57069 38227 ft 437 kts 225°
2026-05-05 23:53 41.13727 -132.62952 38228 ft 436 kts 225°
2026-05-05 23:53 41.09562 -132.68833 38227 ft 437 kts 225°
2026-05-05 23:54 41.05400 -132.74700 38224 ft 437 kts 225°
2026-05-05 23:54 41.01235 -132.80558 38230 ft 437 kts 225°
2026-05-05 23:55 40.97061 -132.86417 38227 ft 437 kts 225°
2026-05-05 23:55 40.92882 -132.92272 38230 ft 437 kts 225°
2026-05-05 23:56 40.88726 -132.98083 38233 ft 437 kts 225°
2026-05-05 23:56 40.84529 -133.03940 38233 ft 438 kts 225°
2026-05-05 23:57 40.80333 -133.09786 38236 ft 438 kts 225°
2026-05-05 23:57 40.76161 -133.15585 38238 ft 438 kts 225°
2026-05-05 23:58 40.71956 -133.21420 38231 ft 438 kts 225°
2026-05-05 23:58 40.67744 -133.27251 38238 ft 439 kts 225°
2026-05-05 23:59 40.63526 -133.33081 38238 ft 439 kts 225°
2026-05-05 23:59 40.59334 -133.38863 38239 ft 440 kts 225°
2026-05-06 00:00 40.55105 -133.44684 38241 ft 440 kts 225°
2026-05-06 00:00 40.50878 -133.50492 38246 ft 440 kts 225°
2026-05-06 00:01 40.46643 -133.56297 38244 ft 440 kts 225°
2026-05-06 00:01 40.42395 -133.62110 38246 ft 441 kts 225°
2026-05-06 00:02 40.38148 -133.67913 38252 ft 441 kts 225°
2026-05-06 00:02 40.33895 -133.73710 38249 ft 441 kts 225°
2026-05-06 00:03 40.29659 -133.79474 38252 ft 442 kts 225°
2026-05-06 00:03 40.25376 -133.85289 38251 ft 442 kts 225°
2026-05-06 00:04 40.21096 -133.91091 38256 ft 442 kts 225°
2026-05-06 00:04 40.16813 -133.96883 38257 ft 443 kts 225°
2026-05-06 00:05 40.10397 -134.05542 38257 ft 443 kts 225°
2026-05-06 00:06 40.06093 -134.11333 38260 ft 444 kts 225°
2026-05-06 00:06 40.01787 -134.17119 38262 ft 444 kts 225°
2026-05-06 00:07 39.97472 -134.22908 38261 ft 444 kts 225°
2026-05-06 00:07 39.93162 -134.28677 38258 ft 444 kts 225°
2026-05-06 00:08 39.88869 -134.34412 38267 ft 445 kts 225°
2026-05-06 00:08 39.84545 -134.40176 38267 ft 445 kts 225°
2026-05-06 00:09 39.80215 -134.45939 38263 ft 445 kts 226°
2026-05-06 00:09 39.75873 -134.51705 38269 ft 446 kts 226°
2026-05-06 00:10 39.71564 -134.57419 38264 ft 445 kts 226°
2026-05-06 00:10 39.67219 -134.63168 38272 ft 445 kts 226°
2026-05-06 00:11 39.62868 -134.68912 38270 ft 446 kts 226°
2026-05-06 00:11 39.58512 -134.74655 38271 ft 446 kts 226°
2026-05-06 00:12 39.54147 -134.80396 38276 ft 446 kts 226°
2026-05-06 00:12 39.49784 -134.86125 38276 ft 446 kts 226°
2026-05-06 00:13 39.45430 -134.91833 38275 ft 448 kts 226°
2026-05-06 00:13 39.41180 -134.97718 38281 ft 447 kts 233°
2026-05-06 00:14 39.37517 -135.04204 38278 ft 447 kts 236°
2026-05-06 00:14 39.33973 -135.10810 38276 ft 447 kts 236°
2026-05-06 00:15 39.30466 -135.17396 38277 ft 447 kts 236°
2026-05-06 00:15 39.26925 -135.24005 38281 ft 447 kts 236°
2026-05-06 00:16 39.23378 -135.30588 38281 ft 446 kts 236°
2026-05-06 00:16 39.19849 -135.37118 38280 ft 446 kts 236°
2026-05-06 00:17 39.16286 -135.43695 38281 ft 446 kts 236°
2026-05-06 00:17 39.12727 -135.50254 38281 ft 446 kts 236°
2026-05-06 00:18 39.09187 -135.56768 38285 ft 446 kts 236°
2026-05-06 00:18 39.05620 -135.63314 38286 ft 446 kts 236°
2026-05-06 00:19 39.02052 -135.69850 38279 ft 446 kts 236°
2026-05-06 00:19 38.98502 -135.76342 38282 ft 446 kts 236°
2026-05-06 00:20 38.94930 -135.82859 38285 ft 446 kts 236°
2026-05-06 00:20 38.91358 -135.89362 38290 ft 445 kts 236°
2026-05-06 00:21 38.87784 -135.95858 38291 ft 445 kts 236°
2026-05-06 00:21 38.84224 -136.02315 38285 ft 445 kts 237°
2026-05-06 00:22 38.80648 -136.08785 38292 ft 445 kts 237°
2026-05-06 00:22 38.77064 -136.15260 38292 ft 445 kts 237°
2026-05-06 00:23 38.73479 -136.21725 38296 ft 445 kts 237°
2026-05-06 00:23 38.70499 -136.27087 38296 ft 445 kts 237°
2026-05-06 00:24 38.66905 -136.33541 38292 ft 445 kts 237°
2026-05-06 00:24 38.63311 -136.39984 38296 ft 445 kts 237°
2026-05-06 00:25 38.59706 -136.46433 38292 ft 444 kts 237°
2026-05-06 00:25 38.56129 -136.52819 38298 ft 444 kts 237°
2026-05-06 00:26 38.52524 -136.59245 38293 ft 444 kts 237°
2026-05-06 00:26 38.48917 -136.65660 38295 ft 444 kts 237°
2026-05-06 00:27 38.45312 -136.72057 38298 ft 444 kts 237°
2026-05-06 00:27 38.41699 -136.78459 38301 ft 444 kts 237°
2026-05-06 00:28 38.38108 -136.84807 38298 ft 444 kts 237°
2026-05-06 00:28 38.34495 -136.91182 38301 ft 443 kts 237°
2026-05-06 00:29 38.30874 -136.97560 38301 ft 443 kts 237°
2026-05-06 00:29 38.27258 -137.03915 38300 ft 443 kts 237°
2026-05-06 00:30 38.23660 -137.10228 38300 ft 443 kts 237°
2026-05-06 00:30 38.20035 -137.16574 38303 ft 443 kts 237°
2026-05-06 00:31 38.16412 -137.22906 38299 ft 443 kts 237°
2026-05-06 00:31 38.12781 -137.29239 38300 ft 442 kts 237°
2026-05-06 00:32 38.09180 -137.35507 38300 ft 441 kts 237°
2026-05-06 00:32 38.05548 -137.41817 38302 ft 441 kts 237°
2026-05-06 00:33 38.01928 -137.48095 38299 ft 440 kts 237°
2026-05-06 00:33 37.98332 -137.54320 38300 ft 440 kts 237°
2026-05-06 00:34 37.94711 -137.60576 38303 ft 440 kts 237°
2026-05-06 00:34 37.91092 -137.66814 38303 ft 438 kts 236°
2026-05-06 00:35 37.87472 -137.73044 38302 ft 438 kts 236°
2026-05-06 00:35 37.83879 -137.79217 38300 ft 438 kts 236°
2026-05-06 00:36 37.80264 -137.85415 38302 ft 437 kts 236°
2026-05-06 00:36 37.76650 -137.91600 38303 ft 437 kts 236°
2026-05-06 00:37 37.73035 -137.97775 38297 ft 437 kts 236°
2026-05-06 00:37 37.69416 -138.03946 38303 ft 436 kts 236°
2026-05-06 00:38 37.65794 -138.10109 38304 ft 436 kts 236°
2026-05-06 00:38 37.62196 -138.16222 38299 ft 436 kts 236°
2026-05-06 00:39 37.58571 -138.22367 38311 ft 436 kts 236°
2026-05-06 00:39 37.54948 -138.28499 38300 ft 436 kts 236°
2026-05-06 00:40 37.51336 -138.34601 38302 ft 436 kts 236°
2026-05-06 00:40 37.47706 -138.40722 38297 ft 435 kts 236°
2026-05-06 00:41 37.44080 -138.46824 38307 ft 435 kts 236°
2026-05-06 00:41 37.40452 -138.52920 38306 ft 435 kts 236°
2026-05-06 00:42 37.36815 -138.59019 38310 ft 435 kts 236°
2026-05-06 00:42 37.33198 -138.65073 38302 ft 434 kts 236°
2026-05-06 00:43 37.29570 -138.71134 38308 ft 434 kts 236°
2026-05-06 00:43 37.25930 -138.77206 38308 ft 434 kts 236°
2026-05-06 00:44 37.22288 -138.83269 38292 ft 434 kts 236°
2026-05-06 00:44 37.18669 -138.89283 38306 ft 434 kts 236°
2026-05-06 00:45 37.15023 -138.95330 38301 ft 434 kts 236°
2026-05-06 00:45 37.11371 -139.01377 38300 ft 434 kts 236°
2026-05-06 00:46 37.07740 -139.07377 38313 ft 434 kts 236°
2026-05-06 00:46 37.04086 -139.13407 38307 ft 434 kts 236°
2026-05-06 00:47 37.00433 -139.19422 38306 ft 434 kts 236°
2026-05-06 00:47 36.96773 -139.25439 38298 ft 433 kts 236°
2026-05-06 00:48 36.93135 -139.31409 38311 ft 434 kts 236°
2026-05-06 00:48 36.89473 -139.37407 38308 ft 433 kts 236°
2026-05-06 00:49 36.85808 -139.43401 38304 ft 433 kts 236°
2026-05-06 00:49 36.82166 -139.49345 38305 ft 434 kts 236°
2026-05-06 00:50 36.78489 -139.55336 38300 ft 433 kts 236°
2026-05-06 00:50 36.74821 -139.61302 38304 ft 432 kts 236°
2026-05-06 00:51 36.71175 -139.67222 38301 ft 433 kts 236°
2026-05-06 00:51 36.67496 -139.73185 38303 ft 433 kts 236°
2026-05-06 00:52 36.63839 -139.79102 38298 ft 433 kts 236°
2026-05-06 00:52 36.60165 -139.85034 38295 ft 432 kts 236°
2026-05-06 00:53 36.56481 -139.90975 38297 ft 433 kts 236°
2026-05-06 00:53 36.52798 -139.96903 38297 ft 433 kts 236°
2026-05-06 00:54 36.49130 -140.02796 38290 ft 432 kts 236°
2026-05-06 00:54 36.45440 -140.08713 38290 ft 433 kts 236°
2026-05-06 00:55 36.41746 -140.14628 38294 ft 433 kts 236°
2026-05-06 00:55 36.38051 -140.20534 38295 ft 434 kts 236°
2026-05-06 00:56 36.34346 -140.26446 38290 ft 433 kts 236°
2026-05-06 00:56 36.30667 -140.32303 38291 ft 433 kts 236°
2026-05-06 00:57 36.26958 -140.38200 38288 ft 434 kts 235°
2026-05-06 00:57 36.23230 -140.44120 38297 ft 435 kts 236°
2026-05-06 00:58 36.19531 -140.49980 38291 ft 432 kts 235°
2026-05-06 00:58 36.15818 -140.55852 38285 ft 432 kts 235°
2026-05-06 00:59 36.12100 -140.61723 38289 ft 434 kts 235°
2026-05-06 00:59 36.08375 -140.67596 38289 ft 434 kts 235°
2026-05-06 01:00 36.04671 -140.73424 38289 ft 432 kts 235°
2026-05-06 01:00 36.00952 -140.79266 38289 ft 432 kts 235°
2026-05-06 01:01 35.97232 -140.85101 38288 ft 432 kts 235°
2026-05-06 01:01 35.93510 -140.90928 38289 ft 431 kts 235°
2026-05-06 01:02 35.89793 -140.96737 38286 ft 431 kts 235°
2026-05-06 01:02 35.86096 -141.02506 38287 ft 432 kts 235°
2026-05-06 01:03 35.82360 -141.08325 38287 ft 432 kts 235°
2026-05-06 01:03 35.78632 -141.14123 38285 ft 432 kts 234°
2026-05-06 01:04 35.74900 -141.19917 38282 ft 431 kts 234°
2026-05-06 01:04 35.71166 -141.25703 38282 ft 431 kts 234°
2026-05-06 01:05 35.67448 -141.31456 38268 ft 431 kts 234°
2026-05-06 01:05 35.64334 -141.36266 38285 ft 432 kts 235°
2026-05-06 01:06 35.59955 -141.43021 38278 ft 432 kts 235°
2026-05-06 01:06 35.56197 -141.48807 38275 ft 432 kts 235°
2026-05-06 01:07 35.53071 -141.53612 38272 ft 433 kts 235°
2026-05-06 01:07 35.48698 -141.60322 38276 ft 433 kts 235°
2026-05-06 01:08 35.44935 -141.66086 38270 ft 433 kts 235°
2026-05-06 01:08 35.41801 -141.70879 38268 ft 433 kts 235°
2026-05-06 01:09 35.38033 -141.76633 38273 ft 432 kts 235°
2026-05-06 01:09 35.34269 -141.82372 38272 ft 431 kts 235°
2026-05-06 01:10 35.30516 -141.88084 38273 ft 430 kts 235°
2026-05-06 01:10 35.26785 -141.93755 38265 ft 429 kts 235°
2026-05-06 01:11 35.23037 -141.99440 38256 ft 428 kts 235°
2026-05-06 01:11 35.19287 -142.05122 38269 ft 429 kts 234°
2026-05-06 01:12 35.15566 -142.10748 38265 ft 427 kts 234°
2026-05-06 01:12 35.11831 -142.16387 38262 ft 426 kts 234°
2026-05-06 01:13 35.08090 -142.22027 38264 ft 426 kts 234°
2026-05-06 01:13 35.04354 -142.27650 38266 ft 427 kts 234°
2026-05-06 01:14 34.98734 -142.36090 38262 ft 427 kts 234°
2026-05-06 01:14 34.94980 -142.41710 38261 ft 427 kts 234°
2026-05-06 01:15 34.91248 -142.47290 38257 ft 427 kts 234°
2026-05-06 01:15 34.87475 -142.52921 38267 ft 429 kts 233°
2026-05-06 01:16 34.83690 -142.58560 38254 ft 430 kts 233°
2026-05-06 01:16 34.79888 -142.64217 38257 ft 430 kts 233°
2026-05-06 01:17 34.76122 -142.69811 38252 ft 430 kts 233°
2026-05-06 01:17 34.72328 -142.75439 38252 ft 430 kts 233°
2026-05-06 01:18 34.68520 -142.81076 38247 ft 429 kts 233°
2026-05-06 01:18 34.64727 -142.86682 38250 ft 429 kts 233°
2026-05-06 01:19 34.60930 -142.92288 38252 ft 430 kts 233°
2026-05-06 01:19 34.57122 -142.97899 38248 ft 431 kts 233°
2026-05-06 01:20 34.53329 -143.03479 38244 ft 430 kts 232°
2026-05-06 01:20 34.49518 -143.09076 38242 ft 429 kts 232°
2026-05-06 01:21 34.45707 -143.14666 38245 ft 430 kts 232°
2026-05-06 01:21 34.41914 -143.20221 38243 ft 430 kts 232°
2026-05-06 01:22 34.38088 -143.25814 38252 ft 431 kts 232°
2026-05-06 01:22 34.34270 -143.31385 38236 ft 430 kts 232°
2026-05-06 01:23 34.30442 -143.36965 38239 ft 431 kts 232°
2026-05-06 01:23 34.26606 -143.42549 38238 ft 431 kts 232°
2026-05-06 01:24 34.22796 -143.48083 38232 ft 431 kts 232°
2026-05-06 01:24 34.18951 -143.53661 38235 ft 432 kts 232°
2026-05-06 01:25 34.15093 -143.59250 38233 ft 433 kts 232°
2026-05-06 01:25 34.11227 -143.64839 38232 ft 433 kts 232°
2026-05-06 01:26 34.07356 -143.70428 38230 ft 434 kts 233°
2026-05-06 01:26 34.03470 -143.76030 38238 ft 435 kts 232°
2026-05-06 01:27 33.99614 -143.81579 38230 ft 434 kts 232°
2026-05-06 01:27 33.95728 -143.87162 38224 ft 433 kts 232°
2026-05-06 01:28 33.91850 -143.92727 38222 ft 434 kts 232°
2026-05-06 01:28 33.87963 -143.98296 38222 ft 435 kts 232°
2026-05-06 01:29 33.84095 -144.03828 38225 ft 434 kts 232°
2026-05-06 01:29 33.80207 -144.09380 38210 ft 433 kts 232°
2026-05-06 01:30 33.76325 -144.14915 38222 ft 432 kts 232°
2026-05-06 01:30 33.72449 -144.20434 38223 ft 432 kts 232°
2026-05-06 01:31 33.68569 -144.25950 38225 ft 432 kts 232°
2026-05-06 01:31 33.64699 -144.31441 38212 ft 430 kts 232°
2026-05-06 01:32 33.60855 -144.36890 38220 ft 430 kts 232°
2026-05-06 01:32 33.56986 -144.42364 38220 ft 430 kts 232°
2026-05-06 01:33 33.53114 -144.47835 38215 ft 430 kts 232°
2026-05-06 01:33 33.49237 -144.53305 38219 ft 430 kts 232°
2026-05-06 01:34 33.45365 -144.58758 38214 ft 429 kts 232°
2026-05-06 01:34 33.41492 -144.64206 38214 ft 429 kts 232°
2026-05-06 01:35 33.37640 -144.69616 38211 ft 429 kts 232°
2026-05-06 01:35 33.33765 -144.75049 38211 ft 429 kts 232°
2026-05-06 01:36 33.29887 -144.80480 38211 ft 429 kts 232°
2026-05-06 01:36 33.26001 -144.85913 38210 ft 429 kts 232°
2026-05-06 01:37 33.22165 -144.91266 38210 ft 422 kts 232°
2026-05-06 01:37 33.18353 -144.96579 38206 ft 419 kts 232°
2026-05-06 01:38 33.14555 -145.01866 38212 ft 419 kts 232°
2026-05-06 01:38 33.10757 -145.07146 38206 ft 418 kts 232°
2026-05-06 01:39 33.06962 -145.12414 38207 ft 418 kts 232°
2026-05-06 01:39 33.03168 -145.17672 38206 ft 418 kts 232°
2026-05-06 01:40 32.99395 -145.22894 38205 ft 418 kts 232°
2026-05-06 01:40 32.95591 -145.28150 38204 ft 418 kts 232°
2026-05-06 01:41 32.91781 -145.33408 38200 ft 418 kts 232°
2026-05-06 01:41 32.87986 -145.38637 38200 ft 417 kts 231°
2026-05-06 01:42 32.84439 -145.43517 38200 ft 418 kts 231°
2026-05-06 01:42 32.80657 -145.48715 38197 ft 418 kts 231°
2026-05-06 01:43 32.76849 -145.53940 38201 ft 417 kts 231°
2026-05-06 01:43 32.73042 -145.59155 38194 ft 416 kts 231°
2026-05-06 01:44 32.69243 -145.64354 38195 ft 417 kts 231°
2026-05-06 01:44 32.65461 -145.69522 38192 ft 417 kts 231°
2026-05-06 01:45 32.61648 -145.74725 38192 ft 417 kts 231°
2026-05-06 01:45 32.57835 -145.79920 38197 ft 417 kts 231°
2026-05-06 01:46 32.54042 -145.85080 38192 ft 417 kts 231°
2026-05-06 01:46 32.50225 -145.90267 38184 ft 417 kts 231°
2026-05-06 01:47 32.46411 -145.95441 38189 ft 417 kts 231°
2026-05-06 01:47 32.42617 -146.00582 38177 ft 417 kts 231°
2026-05-06 01:48 32.38784 -146.05768 38184 ft 418 kts 231°
2026-05-06 01:48 32.34949 -146.10950 38184 ft 418 kts 231°
2026-05-06 01:49 32.31133 -146.16098 38184 ft 418 kts 231°
2026-05-06 01:49 32.27292 -146.21273 38169 ft 418 kts 231°
2026-05-06 01:50 32.23451 -146.26442 38183 ft 419 kts 231°
2026-05-06 01:50 32.19590 -146.31629 38186 ft 420 kts 231°
2026-05-06 01:51 32.15761 -146.36765 38184 ft 418 kts 231°
2026-05-06 01:51 32.11907 -146.41928 38182 ft 418 kts 231°
2026-05-06 01:52 32.08054 -146.47085 38183 ft 419 kts 231°
2026-05-06 01:52 32.04217 -146.52212 38175 ft 420 kts 231°
2026-05-06 01:53 32.00353 -146.57367 38176 ft 420 kts 231°
2026-05-06 01:53 31.96487 -146.62518 38177 ft 418 kts 231°
2026-05-06 01:54 31.92640 -146.67636 38173 ft 419 kts 231°
2026-05-06 01:54 31.88772 -146.72777 38172 ft 420 kts 231°
2026-05-06 01:55 31.84891 -146.77927 38168 ft 420 kts 231°
2026-05-06 01:55 31.81008 -146.83073 38169 ft 420 kts 231°
2026-05-06 01:56 31.77156 -146.88170 38168 ft 419 kts 231°
2026-05-06 01:56 31.73290 -146.93279 38168 ft 418 kts 231°
2026-05-06 01:57 31.69422 -146.98384 38165 ft 418 kts 231°
2026-05-06 01:57 31.65549 -147.03488 38166 ft 418 kts 231°
2026-05-06 01:58 31.61702 -147.08552 38145 ft 418 kts 231°
2026-05-06 01:58 31.57810 -147.13668 38167 ft 419 kts 231°
2026-05-06 01:59 31.53948 -147.18737 38155 ft 418 kts 231°
2026-05-06 01:59 31.50061 -147.23831 38158 ft 418 kts 231°
2026-05-06 02:00 31.46177 -147.28916 38160 ft 418 kts 231°
2026-05-06 02:00 31.42293 -147.33994 38159 ft 419 kts 231°
2026-05-06 02:01 31.38402 -147.39075 38159 ft 419 kts 231°
2026-05-06 02:01 31.34510 -147.44149 38154 ft 418 kts 231°
2026-05-06 02:02 31.30653 -147.49170 38150 ft 417 kts 231°
2026-05-06 02:02 31.26770 -147.54219 38140 ft 417 kts 231°
2026-05-06 02:03 31.22874 -147.59280 38152 ft 419 kts 231°
2026-05-06 02:03 31.18965 -147.64349 38148 ft 419 kts 231°
2026-05-06 02:04 31.15079 -147.69382 38146 ft 418 kts 231°
2026-05-06 02:04 31.11177 -147.74428 38143 ft 418 kts 231°
2026-05-06 02:05 31.07274 -147.79470 38145 ft 419 kts 231°
2026-05-06 02:05 31.03389 -147.84483 38145 ft 419 kts 231°
2026-05-06 02:06 30.99474 -147.89526 38140 ft 420 kts 231°
2026-05-06 02:06 30.95550 -147.94574 38148 ft 419 kts 231°
2026-05-06 02:07 30.91637 -147.99601 38137 ft 418 kts 231°
2026-05-06 02:07 30.87723 -148.04624 38140 ft 418 kts 231°
2026-05-06 02:08 30.83828 -148.09616 38142 ft 419 kts 231°
2026-05-06 02:08 30.79909 -148.14631 38134 ft 419 kts 231°
2026-05-06 02:09 30.75984 -148.19649 38137 ft 419 kts 231°
2026-05-06 02:09 30.72057 -148.24662 38131 ft 419 kts 231°
2026-05-06 02:10 30.68147 -148.29647 38128 ft 420 kts 231°
2026-05-06 02:10 30.64208 -148.34662 38129 ft 420 kts 231°
2026-05-06 02:11 30.60268 -148.39672 38125 ft 420 kts 231°
2026-05-06 02:11 30.56994 -148.43830 38111 ft 420 kts 231°
2026-05-06 02:12 30.53041 -148.48844 38136 ft 421 kts 230°
2026-05-06 02:12 30.49093 -148.53845 38124 ft 419 kts 230°
2026-05-06 02:13 30.45155 -148.58827 38125 ft 419 kts 230°
2026-05-06 02:13 30.41245 -148.63768 38125 ft 419 kts 230°
2026-05-06 02:14 30.37305 -148.68741 38120 ft 419 kts 231°
2026-05-06 02:14 30.33349 -148.73729 38122 ft 421 kts 231°
2026-05-06 02:15 30.29381 -148.78723 38131 ft 421 kts 231°
2026-05-06 02:15 30.25434 -148.83685 38119 ft 421 kts 231°
2026-05-06 02:16 30.21465 -148.88668 38125 ft 421 kts 231°
2026-05-06 02:16 30.17489 -148.93654 38128 ft 422 kts 231°
2026-05-06 02:17 30.13505 -148.98643 38112 ft 422 kts 231°
2026-05-06 02:17 30.09514 -149.03634 38124 ft 422 kts 230°
2026-05-06 02:18 30.05528 -149.08613 38119 ft 421 kts 230°
2026-05-06 02:18 30.01578 -149.13546 38118 ft 420 kts 230°
2026-05-06 02:19 29.97606 -149.18504 38113 ft 420 kts 230°
2026-05-06 02:19 29.93633 -149.23456 38113 ft 420 kts 230°
2026-05-06 02:20 29.87697 -149.30842 38116 ft 420 kts 230°
2026-05-06 02:21 29.83724 -149.35778 38097 ft 418 kts 230°
2026-05-06 02:21 29.79774 -149.40678 38112 ft 417 kts 230°
2026-05-06 02:22 29.75812 -149.45589 38114 ft 418 kts 230°
2026-05-06 02:22 29.71878 -149.50459 38104 ft 418 kts 230°
2026-05-06 02:23 29.67906 -149.55369 38112 ft 418 kts 230°
2026-05-06 02:23 29.63965 -149.60235 38114 ft 418 kts 230°
2026-05-06 02:24 29.60005 -149.65117 38113 ft 416 kts 230°
2026-05-06 02:24 29.56053 -149.69985 38095 ft 416 kts 230°
2026-05-06 02:25 29.52105 -149.74842 38109 ft 416 kts 230°
2026-05-06 02:25 29.48149 -149.79702 38109 ft 416 kts 230°
2026-05-06 02:26 29.44211 -149.84535 38097 ft 416 kts 230°
2026-05-06 02:26 29.40239 -149.89404 38109 ft 418 kts 230°
2026-05-06 02:27 29.36287 -149.94241 38105 ft 417 kts 230°
2026-05-06 02:27 29.32313 -149.99098 38101 ft 417 kts 230°
2026-05-06 02:28 29.28335 -150.03956 38101 ft 417 kts 230°
2026-05-06 02:28 29.24362 -150.08802 38098 ft 417 kts 230°
2026-05-06 02:29 29.20399 -150.13629 38098 ft 418 kts 230°
2026-05-06 02:29 29.16408 -150.18485 38106 ft 418 kts 231°
2026-05-06 02:30 29.12445 -150.23300 38095 ft 417 kts 231°
2026-05-06 02:30 29.08467 -150.28129 38097 ft 417 kts 231°
2026-05-06 02:31 29.04510 -150.32926 38094 ft 417 kts 231°
2026-05-06 02:31 29.00516 -150.37763 38094 ft 418 kts 231°
2026-05-06 02:32 28.96513 -150.42604 38091 ft 418 kts 231°
2026-05-06 02:32 28.92511 -150.47436 38095 ft 418 kts 231°
2026-05-06 02:33 28.88526 -150.52244 38091 ft 418 kts 231°
2026-05-06 02:33 28.87201 -150.53842 38076 ft 418 kts 231°
2026-05-06 02:34 28.80514 -150.61893 38092 ft 419 kts 231°
2026-05-06 02:34 28.76521 -150.66693 38091 ft 419 kts 231°
2026-05-06 02:35 28.72502 -150.71519 38089 ft 419 kts 231°
2026-05-06 02:35 28.68481 -150.76340 38088 ft 419 kts 231°
2026-05-06 02:36 28.64478 -150.81135 38088 ft 419 kts 231°
2026-05-06 02:36 28.60452 -150.85953 38088 ft 420 kts 231°
2026-05-06 02:37 28.56420 -150.90770 38089 ft 420 kts 231°
2026-05-06 02:37 28.52387 -150.95585 38083 ft 420 kts 231°
2026-05-06 02:38 28.48373 -151.00369 38083 ft 420 kts 231°
2026-05-06 02:38 28.44328 -151.05185 38089 ft 421 kts 231°
2026-05-06 02:39 28.40270 -151.10013 38083 ft 422 kts 231°
2026-05-06 02:39 28.36236 -151.14805 38080 ft 422 kts 231°
2026-05-06 02:40 28.32166 -151.19633 38088 ft 422 kts 231°
2026-05-06 02:40 28.28101 -151.24451 38080 ft 422 kts 230°
2026-05-06 02:41 28.24033 -151.29266 38082 ft 423 kts 230°
2026-05-06 02:41 28.19973 -151.34067 38081 ft 423 kts 231°
2026-05-06 02:42 28.15885 -151.38894 38076 ft 423 kts 230°
2026-05-06 02:42 28.11830 -151.43677 38078 ft 423 kts 230°
2026-05-06 02:43 28.07736 -151.48500 38079 ft 424 kts 230°
2026-05-06 02:43 28.03654 -151.53305 38075 ft 424 kts 230°
2026-05-06 02:44 27.99584 -151.58088 38075 ft 424 kts 230°
2026-05-06 02:44 27.95495 -151.62889 38075 ft 424 kts 230°
2026-05-06 02:45 27.91394 -151.67699 38074 ft 424 kts 230°
2026-05-06 02:45 27.87295 -151.72499 38072 ft 424 kts 230°
2026-05-06 02:46 27.83192 -151.77300 38075 ft 424 kts 230°
2026-05-06 02:46 27.79111 -151.82070 38075 ft 425 kts 230°
2026-05-06 02:47 27.74999 -151.86869 38070 ft 425 kts 230°
2026-05-06 02:47 27.70887 -151.91663 38077 ft 425 kts 230°
2026-05-06 02:48 27.66770 -151.96458 38071 ft 425 kts 230°
2026-05-06 02:48 27.62672 -152.01224 38068 ft 425 kts 230°
2026-05-06 02:49 27.58543 -152.06023 38071 ft 426 kts 230°
2026-05-06 02:49 27.54426 -152.10801 38069 ft 426 kts 230°
2026-05-06 02:50 27.50289 -152.15595 38070 ft 426 kts 230°
2026-05-06 02:50 27.46147 -152.20391 38070 ft 427 kts 230°
2026-05-06 02:51 27.41997 -152.25190 38080 ft 427 kts 230°
2026-05-06 02:51 27.37869 -152.29960 38064 ft 428 kts 230°
2026-05-06 02:52 27.33702 -152.34769 38081 ft 428 kts 230°
2026-05-06 02:52 27.29538 -152.39567 38064 ft 429 kts 230°
2026-05-06 02:53 27.25370 -152.44366 38075 ft 429 kts 230°
2026-05-06 02:53 27.21199 -152.49163 38056 ft 428 kts 230°
2026-05-06 02:54 27.17055 -152.53923 38072 ft 429 kts 230°
2026-05-06 02:54 27.12865 -152.58731 38070 ft 430 kts 230°
2026-05-06 02:55 27.08667 -152.63541 38067 ft 430 kts 230°
2026-05-06 02:55 27.04498 -152.68313 38061 ft 430 kts 230°
2026-05-06 02:56 27.00302 -152.73111 38043 ft 430 kts 230°
2026-05-06 02:56 26.96092 -152.77919 38062 ft 431 kts 230°
2026-05-06 02:57 26.91920 -152.82679 38064 ft 431 kts 230°
2026-05-06 02:57 26.87712 -152.87476 38069 ft 431 kts 230°
2026-05-06 02:58 26.84208 -152.91464 38063 ft 432 kts 230°
2026-05-06 02:58 26.79299 -152.97045 38057 ft 432 kts 230°
2026-05-06 02:59 26.75759 -153.01067 38062 ft 432 kts 230°
2026-05-06 02:59 26.71565 -153.05825 38061 ft 432 kts 230°
2026-05-06 03:00 26.67339 -153.10615 38060 ft 432 kts 230°
2026-05-06 03:00 26.63106 -153.15407 38063 ft 433 kts 230°
2026-05-06 03:01 26.58867 -153.20202 38065 ft 433 kts 230°
2026-05-06 03:01 26.54624 -153.24995 38055 ft 433 kts 229°
2026-05-06 03:02 26.50383 -153.29779 38058 ft 433 kts 229°
2026-05-06 03:02 26.46163 -153.34536 38059 ft 433 kts 229°
2026-05-06 03:03 26.41914 -153.39319 38057 ft 433 kts 229°
2026-05-06 03:03 26.37667 -153.44095 38064 ft 433 kts 229°
2026-05-06 03:04 26.33413 -153.48873 38054 ft 433 kts 229°
2026-05-06 03:04 26.29176 -153.53626 38061 ft 431 kts 229°
2026-05-06 03:05 26.24972 -153.58338 38059 ft 431 kts 229°
2026-05-06 03:05 26.20734 -153.63084 38059 ft 431 kts 229°
2026-05-06 03:06 26.16521 -153.67798 38061 ft 431 kts 229°
2026-05-06 03:06 26.12285 -153.72530 38058 ft 431 kts 229°
2026-05-06 03:07 26.08052 -153.77253 38056 ft 430 kts 229°
2026-05-06 03:07 26.03843 -153.81946 38059 ft 430 kts 229°
2026-05-06 03:08 25.99606 -153.86664 38061 ft 431 kts 229°
2026-05-06 03:08 25.95370 -153.91376 38058 ft 431 kts 229°
2026-05-06 03:09 25.91131 -153.96086 38056 ft 431 kts 229°
2026-05-06 03:09 25.86889 -154.00795 38056 ft 431 kts 229°
2026-05-06 03:10 25.82650 -154.05495 38060 ft 431 kts 229°
2026-05-06 03:10 25.78399 -154.10204 38059 ft 433 kts 229°
2026-05-06 03:11 25.74131 -154.14927 38054 ft 433 kts 229°
2026-05-06 03:11 25.69887 -154.19616 38056 ft 433 kts 229°
2026-05-06 03:12 25.65621 -154.24325 38043 ft 433 kts 229°
2026-05-06 03:12 25.61355 -154.29028 38056 ft 431 kts 229°
2026-05-06 03:13 25.57103 -154.33713 38057 ft 430 kts 229°
2026-05-06 03:13 25.52845 -154.38400 38056 ft 432 kts 229°
2026-05-06 03:14 25.48598 -154.43070 38053 ft 433 kts 229°
2026-05-06 03:14 25.44309 -154.47781 38055 ft 433 kts 229°
2026-05-06 03:15 25.40020 -154.52485 38053 ft 432 kts 229°
2026-05-06 03:15 25.35777 -154.57133 38053 ft 431 kts 229°
2026-05-06 03:16 25.31509 -154.61805 38050 ft 431 kts 229°
2026-05-06 03:16 25.27243 -154.66472 38054 ft 431 kts 229°
2026-05-06 03:17 25.22996 -154.71111 38052 ft 431 kts 229°
2026-05-06 03:17 25.18728 -154.75769 38033 ft 431 kts 229°
2026-05-06 03:18 25.14463 -154.80418 38050 ft 430 kts 229°
2026-05-06 03:18 25.10232 -154.85024 38048 ft 429 kts 229°
2026-05-06 03:19 25.05978 -154.89653 38051 ft 429 kts 229°
2026-05-06 03:19 25.01718 -154.94284 38051 ft 430 kts 229°
2026-05-06 03:20 24.95325 -155.01223 38049 ft 431 kts 229°
2026-05-06 03:20 24.91044 -155.05864 38047 ft 430 kts 228°
2026-05-06 03:21 24.86802 -155.10456 38049 ft 429 kts 228°
2026-05-06 03:21 24.82541 -155.15066 38047 ft 429 kts 228°
2026-05-06 03:22 24.78274 -155.19677 38048 ft 429 kts 228°
2026-05-06 03:22 24.74000 -155.24292 38045 ft 430 kts 228°
2026-05-06 03:23 24.70284 -155.29303 38046 ft 424 kts 237°
2026-05-06 03:23 24.66872 -155.34606 38049 ft 425 kts 238°
2026-05-06 03:24 24.63479 -155.39930 38047 ft 425 kts 238°
2026-05-06 03:24 24.60086 -155.45255 38048 ft 425 kts 238°
2026-05-06 03:25 24.56687 -155.50588 38045 ft 425 kts 238°
2026-05-06 03:25 24.53286 -155.55918 38044 ft 425 kts 238°
2026-05-06 03:26 24.49905 -155.61210 38042 ft 425 kts 238°
2026-05-06 03:26 24.46501 -155.66533 38050 ft 426 kts 238°
2026-05-06 03:27 24.43091 -155.71860 38051 ft 425 kts 238°
2026-05-06 03:27 24.39711 -155.77134 38048 ft 425 kts 238°
2026-05-06 03:28 24.36303 -155.82447 38044 ft 425 kts 238°
2026-05-06 03:28 24.32893 -155.87756 38046 ft 425 kts 238°
2026-05-06 03:29 24.29482 -155.93062 38044 ft 425 kts 238°
2026-05-06 03:29 24.26063 -155.98375 38044 ft 428 kts 238°
2026-05-06 03:30 24.22650 -156.03671 38041 ft 426 kts 238°
2026-05-06 03:30 24.19232 -156.08969 38043 ft 425 kts 238°
2026-05-06 03:31 24.15815 -156.14263 38044 ft 425 kts 238°
2026-05-06 03:31 24.12394 -156.19554 38049 ft 425 kts 238°
2026-05-06 03:32 24.08971 -156.24845 38045 ft 425 kts 238°
2026-05-06 03:32 24.05385 -156.29974 38044 ft 430 kts 227°
2026-05-06 03:33 24.02984 -156.31971 38043 ft 437 kts 212°
2026-05-06 03:33 24.00147 -156.33244 38042 ft 443 kts 201°
2026-05-06 03:33 23.94212 -156.35029 38045 ft 445 kts 199°
2026-05-06 03:34 23.88220 -156.36772 38042 ft 445 kts 199°
2026-05-06 03:34 23.82225 -156.38537 38042 ft 445 kts 199°
2026-05-06 03:35 23.76275 -156.40297 38042 ft 445 kts 199°
2026-05-06 03:35 23.70290 -156.42068 38036 ft 444 kts 200°
2026-05-06 03:36 23.64340 -156.43828 38048 ft 442 kts 200°
2026-05-06 03:36 23.58431 -156.45575 38047 ft 442 kts 200°
2026-05-06 03:37 23.52487 -156.47331 38045 ft 442 kts 200°
2026-05-06 03:37 23.46539 -156.49086 38046 ft 442 kts 200°
2026-05-06 03:38 23.40592 -156.50839 38036 ft 442 kts 200°
2026-05-06 03:38 23.34638 -156.52592 38043 ft 442 kts 200°
2026-05-06 03:39 23.28724 -156.54332 38045 ft 442 kts 200°
2026-05-06 03:39 23.22783 -156.56079 38044 ft 442 kts 200°
2026-05-06 03:40 23.16839 -156.57824 38038 ft 442 kts 200°
2026-05-06 03:40 23.10898 -156.59567 38045 ft 442 kts 200°
2026-05-06 03:41 23.04963 -156.61308 38045 ft 441 kts 200°
2026-05-06 03:41 22.99033 -156.63045 38042 ft 441 kts 200°
2026-05-06 03:42 22.93137 -156.64770 38027 ft 442 kts 200°
2026-05-06 03:42 22.90162 -156.65639 37794 ft 438 kts 200°
2026-05-06 03:42 22.87244 -156.66490 37558 ft 431 kts 200°
2026-05-06 03:43 22.84342 -156.67338 36982 ft 433 kts 200°
2026-05-06 03:43 22.81425 -156.68192 36411 ft 435 kts 199°
2026-05-06 03:43 22.78495 -156.69048 35841 ft 437 kts 199°
2026-05-06 03:43 22.75547 -156.69912 35245 ft 440 kts 199°
2026-05-06 03:44 22.72568 -156.70790 34534 ft 446 kts 199°
2026-05-06 03:44 22.69596 -156.71667 33845 ft 451 kts 199°
2026-05-06 03:44 22.66550 -156.72564 33123 ft 455 kts 199°
2026-05-06 03:44 22.63488 -156.73465 32429 ft 457 kts 198°
2026-05-06 03:45 22.60406 -156.74372 31710 ft 460 kts 199°
2026-05-06 03:45 22.58314 -156.74987 31299 ft 460 kts 199°
2026-05-06 03:45 22.55270 -156.75881 30852 ft 457 kts 199°
2026-05-06 03:45 22.52211 -156.76779 30370 ft 454 kts 198°
2026-05-06 03:46 22.49161 -156.77674 29830 ft 452 kts 198°
2026-05-06 03:46 22.46140 -156.78562 29309 ft 449 kts 198°
2026-05-06 03:46 22.43128 -156.79445 28813 ft 445 kts 198°
2026-05-06 03:46 22.40140 -156.80322 28310 ft 442 kts 198°
2026-05-06 03:47 22.37216 -156.81176 27804 ft 439 kts 198°
2026-05-06 03:47 22.34275 -156.82030 27286 ft 436 kts 198°
2026-05-06 03:47 22.31349 -156.82879 26798 ft 433 kts 199°
2026-05-06 03:47 22.28452 -156.83719 26315 ft 430 kts 199°
2026-05-06 03:48 22.25576 -156.84553 25802 ft 427 kts 199°
2026-05-06 03:48 22.22712 -156.85383 25314 ft 424 kts 199°
2026-05-06 03:48 22.19866 -156.86208 24829 ft 421 kts 199°
2026-05-06 03:48 22.17039 -156.87027 24345 ft 419 kts 199°
2026-05-06 03:49 22.14258 -156.87832 23849 ft 417 kts 198°
2026-05-06 03:49 22.11461 -156.88642 23321 ft 415 kts 198°
2026-05-06 03:49 22.08685 -156.89445 22821 ft 411 kts 198°
2026-05-06 03:49 22.05935 -156.90240 22351 ft 406 kts 198°
2026-05-06 03:50 22.03215 -156.91026 21865 ft 402 kts 198°
2026-05-06 03:50 22.00522 -156.91804 21402 ft 398 kts 198°
2026-05-06 03:50 21.97864 -156.92572 20940 ft 394 kts 198°
2026-05-06 03:50 21.95226 -156.93334 20476 ft 391 kts 198°
2026-05-06 03:51 21.92612 -156.94089 20020 ft 388 kts 198°
2026-05-06 03:51 21.90009 -156.94841 19564 ft 385 kts 198°
2026-05-06 03:51 21.87464 -156.95576 19118 ft 382 kts 198°
2026-05-06 03:51 21.84983 -156.96536 18657 ft 376 kts 210°
2026-05-06 03:52 21.82885 -156.98154 18167 ft 369 kts 226°
2026-05-06 03:52 21.81164 -157.00191 17685 ft 365 kts 231°
2026-05-06 03:52 21.79549 -157.02284 17248 ft 361 kts 232°
2026-05-06 03:52 21.77956 -157.04367 16804 ft 358 kts 232°
2026-05-06 03:53 21.76373 -157.06427 16376 ft 355 kts 231°
2026-05-06 03:53 21.74819 -157.08441 15941 ft 352 kts 231°
2026-05-06 03:53 21.73252 -157.10467 15517 ft 350 kts 231°
2026-05-06 03:53 21.71700 -157.12467 15076 ft 348 kts 231°
2026-05-06 03:54 21.70152 -157.14455 14654 ft 346 kts 230°
2026-05-06 03:54 21.68506 -157.16362 14245 ft 350 kts 225°
2026-05-06 03:54 21.66758 -157.18195 13828 ft 351 kts 224°
2026-05-06 03:54 21.65004 -157.20010 13357 ft 348 kts 224°
2026-05-06 03:55 21.63267 -157.21808 12921 ft 346 kts 224°
2026-05-06 03:55 21.61532 -157.23599 12474 ft 345 kts 224°
2026-05-06 03:55 21.59819 -157.25365 12035 ft 344 kts 224°
2026-05-06 03:55 21.58095 -157.27142 11602 ft 343 kts 224°
2026-05-06 03:56 21.56377 -157.28913 11168 ft 341 kts 224°
2026-05-06 03:56 21.54669 -157.30670 10741 ft 338 kts 224°
2026-05-06 03:56 21.52972 -157.32414 10315 ft 336 kts 224°
2026-05-06 03:56 21.51286 -157.34144 9907 ft 334 kts 224°
2026-05-06 03:57 21.49606 -157.35865 9449 ft 332 kts 224°
2026-05-06 03:57 21.47968 -157.37555 9001 ft 330 kts 224°
2026-05-06 03:57 21.46305 -157.39284 8551 ft 327 kts 224°
2026-05-06 03:57 21.44695 -157.40954 8116 ft 325 kts 224°
2026-05-06 03:58 21.43070 -157.42633 7669 ft 323 kts 224°
2026-05-06 03:58 21.41450 -157.44293 7229 ft 321 kts 223°
2026-05-06 03:58 21.39665 -157.45718 6809 ft 319 kts 212°
2026-05-06 03:58 21.37743 -157.46889 6387 ft 314 kts 210°
2026-05-06 03:59 21.35863 -157.47976 5929 ft 299 kts 209°
2026-05-06 03:59 21.34074 -157.49002 5487 ft 284 kts 209°
2026-05-06 03:59 21.32359 -157.49980 5037 ft 273 kts 209°
2026-05-06 03:59 21.30714 -157.50913 4585 ft 263 kts 209°
2026-05-06 04:00 21.29138 -157.51852 4135 ft 255 kts 216°
2026-05-06 04:00 21.27852 -157.53074 3732 ft 247 kts 227°
2026-05-06 04:00 21.26690 -157.54426 3315 ft 246 kts 229°
2026-05-06 04:00 21.25566 -157.55778 3040 ft 238 kts 234°
2026-05-06 04:01 21.24760 -157.57284 2995 ft 231 kts 248°
2026-05-06 04:01 21.24125 -157.58869 2993 ft 232 kts 250°
2026-05-06 04:01 21.23511 -157.60470 2998 ft 232 kts 249°
2026-05-06 04:01 21.22907 -157.62075 3007 ft 232 kts 250°
2026-05-06 04:02 21.22295 -157.63671 2994 ft 231 kts 250°
2026-05-06 04:02 21.21679 -157.65253 3000 ft 229 kts 249°
2026-05-06 04:02 21.21080 -157.66811 3005 ft 229 kts 250°
2026-05-06 04:02 21.20475 -157.68382 2994 ft 228 kts 249°
2026-05-06 04:03 21.19873 -157.69956 3003 ft 228 kts 249°
2026-05-06 04:03 21.19269 -157.71527 2991 ft 228 kts 249°
2026-05-06 04:03 21.18661 -157.73099 3000 ft 228 kts 250°
2026-05-06 04:03 21.18327 -157.74736 2985 ft 226 kts 272°
2026-05-06 04:04 21.18816 -157.76291 2908 ft 222 kts 308°
2026-05-06 04:04 21.19912 -157.77426 2676 ft 217 kts 319°
2026-05-06 04:04 21.21062 -157.78473 2298 ft 221 kts 318°
2026-05-06 04:04 21.22197 -157.79607 2260 ft 224 kts 314°
2026-05-06 04:05 21.23295 -157.80786 2201 ft 223 kts 314°
2026-05-06 04:05 21.24386 -157.81957 2146 ft 222 kts 314°
2026-05-06 04:05 21.25466 -157.83115 2032 ft 212 kts 316°
2026-05-06 04:05 21.26469 -157.84186 1833 ft 195 kts 316°
2026-05-06 04:06 21.27394 -157.85173 1598 ft 181 kts 315°
2026-05-06 04:06 21.28248 -157.86086 1358 ft 168 kts 315°
2026-05-06 04:06 21.29045 -157.86939 1076 ft 158 kts 315°
2026-05-06 04:06 21.29821 -157.87759 786 ft 153 kts 311°
2026-05-06 04:07 21.30454 -157.88626 522 ft 140 kts 291°
2026-05-06 04:07 21.30680 -157.89580 294 ft 130 kts 268°
2026-05-06 04:07 21.30683 -157.90552 141 ft 131 kts 267°
2026-05-06 04:07 21.30678 -157.91530 29 ft 127 kts 270°
2026-05-06 04:08 21.30679 -157.92317 33 ft 78 kts 271°
2026-05-06 04:08 21.30681 -157.92822 28 ft 60 kts 269°
2026-05-06 04:08 21.30682 -157.93245 23 ft 55 kts 270°
2026-05-06 04:08 21.30682 -157.93636 27 ft 51 kts 270°
2026-05-06 04:09 21.30681 -157.93994 33 ft 44 kts 270°
2026-05-06 04:09 21.30682 -157.94262 32 ft 32 kts 270°
2026-05-06 04:09 21.30683 -157.94449 31 ft 18 kts 271°
2026-05-06 04:09 21.30702 -157.94554 28 ft 14 kts 306°
2026-05-06 04:10 21.30789 -157.94573 28 ft 15 kts
2026-05-06 04:10 21.30911 -157.94569 28 ft 20 kts
2026-05-06 04:10 21.31061 -157.94582 28 ft 24 kts 353°
2026-05-06 04:10 21.31242 -157.94605 28 ft 28 kts 353°
2026-05-06 04:11 21.31429 -157.94630 28 ft 26 kts 353°
2026-05-06 04:11 21.31582 -157.94650 28 ft 19 kts 353°
2026-05-06 04:11 21.31708 -157.94657 28 ft 20 kts
2026-05-06 04:11 21.31821 -157.94609 28 ft 19 kts 28°
2026-05-06 04:12 21.31946 -157.94534 28 ft 21 kts 29°
2026-05-06 04:12 21.32058 -157.94467 28 ft 16 kts 29°
2026-05-06 04:12 21.32172 -157.94400 28 ft 21 kts 29°
2026-05-06 04:12 21.32285 -157.94332 28 ft 18 kts 29°
2026-05-06 04:13 21.32396 -157.94266 28 ft 17 kts 29°
2026-05-06 04:13 21.32492 -157.94209 28 ft 16 kts 29°
2026-05-06 04:13 21.32597 -157.94147 28 ft 18 kts 29°
2026-05-06 04:13 21.32700 -157.94081 27 ft 13 kts 40°
2026-05-06 04:14 21.32739 -157.93988 28 ft 15 kts 84°
2026-05-06 04:14 21.32742 -157.93872 28 ft 16 kts 90°
2026-05-06 04:14 21.32742 -157.93747 28 ft 18 kts 90°
2026-05-06 04:14 21.32742 -157.93610 28 ft 19 kts 89°
2026-05-06 04:15 21.32742 -157.93463 28 ft 21 kts 90°
2026-05-06 04:15 21.32742 -157.93302 28 ft 22 kts 90°
2026-05-06 04:15 21.32742 -157.93140 28 ft 17 kts 90°
2026-05-06 04:15 21.32742 -157.93057 28 ft 11 kts 90°
2026-05-06 04:16 21.32742 -157.92969 28 ft 13 kts 90°
2026-05-06 04:16 21.32743 -157.92879 28 ft 10 kts 90°
2026-05-06 04:16 21.32755 -157.92821 28 ft 8 kts 49°
2026-05-06 04:16 21.32809 -157.92809 28 ft 9 kts
2026-05-06 04:17 21.32878 -157.92803 28 ft 10 kts 17°
2026-05-06 04:17 21.32936 -157.92757 28 ft 11 kts 44°
2026-05-06 04:17 21.32989 -157.92701 28 ft 10 kts 45°
2026-05-06 04:17 21.33034 -157.92652 28 ft 7 kts 45°
2026-05-06 04:18 21.33070 -157.92618 28 ft 8 kts 37°
2026-05-06 04:18 21.33124 -157.92586 28 ft 10 kts 26°
2026-05-06 04:18 21.33196 -157.92563 28 ft 12 kts
2026-05-06 04:18 21.33273 -157.92551 28 ft 9 kts
2026-05-06 04:19 21.33345 -157.92540 28 ft 11 kts
2026-05-06 04:19 21.33414 -157.92530 28 ft 9 kts
2026-05-06 04:19 21.33475 -157.92544 28 ft 10 kts 331°
2026-05-06 04:19 21.33539 -157.92589 28 ft 12 kts 328°
2026-05-06 04:20 21.33607 -157.92620 28 ft 9 kts 349°
2026-05-06 04:20 21.33662 -157.92617 28 ft 7 kts
2026-05-06 04:20 21.33712 -157.92604 28 ft 7 kts 18°
2026-05-06 04:20 21.33747 -157.92583 28 ft 3 kts 38°
2026-05-06 04:21 21.33756 -157.92564 28 ft 2 kts 82°
2026-05-06 04:21 21.33750 -157.92552 28 ft 2 kts 121°
2026-05-06 04:21 21.33735 -157.92540 28 ft 4 kts 146°
2026-05-06 04:21 21.33715 -157.92527 28 ft 2 kts 149°
2026-05-06 04:22 21.33704 -157.92520 28 ft 1 kts 149°
2026-05-06 04:22 21.33698 -157.92516 28 ft 1 kts 150°
2026-05-06 04:22 21.33692 -157.92512 28 ft 1 kts 150°
2026-05-06 04:23 21.33690 -157.92511 28 ft 0 kts 150°